Probability
0 0 0 0 0 0 0 0 0 0 0 0 0 0 0 0 0 0 0 0 0 0 0 0 0 0 0 0 0 0 0 0 0 0 0 0 0 0
0 0 0 0 0 0 0 0 0 0 0 0 0 0 0 0 0 0 0 0 0 0 0 0 0 0 0 0 0 0 0 0 0 0 0 0 0 0
0 0 0 0 0 0 0 0 0 0 0 0 0 0 0 0 0 0 0 0 0 0 0 0 0 0 0 0 0 0 0 0 0 0 0 0 0 0
0 0 0 0 0 0 0 0 0 0 0 0 0 0 0 0 0 0 0 0 0 0 0 0 0 0 0 0 0 0 0 0 0 0 0 0 0 0
0 0 0 0 0 0 0 0 0 0 0 0 0 0 0 0 0 0 0 0 0 0 0 0 0 0 0 0 0 0 0 0 0 0 0 0 0 0
0 0 0 0 0 0 0 0 0 0 0 0 0 0 0 0 0 0 0 0 0 0 0 0 0 0 0 0 0 0 0 0 0 0 0 0 0 0
0 0 0 0 0 0 0 0 0 0 0 0 0 0 0 0 0 0 0 0 0 0 0 0 0 0 0 0 0 0 0 0 0 0 0 0 0 0
0 0 0 0 0 0 0 0 0 0 0 0 0 0 0 0 0 0 0 0 0 0 0 0 0 0 0 0 0 0 0 0 0 0 0 0 0 0
0 0 0 0 0 0 0 0 0 0 0 0 0 0 0 0 0 0 0 0 0 0 0 0 0 0 0 0 0 0 0 0 0 0 0 0 0 0
0 0 0 0 0 0 0 0 0 0 0 0 0 0 0 0 0 0 0 0 0 0 0 0 0 0 0 0 0 0 0 0 0 0 0 0 0 0
0 0 0 0 0 0 0 0 0 0 0 0 0 0 0 0 0 0 0 0 0 0 0 0 0 0 0 0 0 0 0 0 0 0 0 0 0 0
0 0 0 0 0 0 0 0 0 0 0 0 0 0 0 0 0 0 0 0 0 0 0 0 0 0 0 0 0 0 0 0 0 0 0 0 0 0
0 0 0 0 0 0 0 0 0 0 0 0 0 0 0 0 0 0 0 0 0 0 0 0 0 0 0 0 0 0 0 0 0 0 0 0 0 0
0 0 0 0 0 0 0 0 0 0 0 0 0 0 0 0 0 0 0 0 0 0 0 0 0 0 0 0 0 0 0 0 0 0 0 0 0 0
0 0 0 0 0 0 0 0 0 0 0 0 0 0 0 0 0 0 0 0 0 0 0 0 0 0 0 0 0 0 0 0 0 0 0 0 0 0
0 0 0 0 0 0 0 0 0 0 0 0 0 0 0 0 0 0 0 0 0 0 0 0 0 0 0 0 0 0 0 0 0 0 0 0 0 0
0 0 0 0 0 0 0 0 0 0 0 0 0 0 0 0 0 0 0 0 0 0 0 0 0 0 0 0 0 0 0 0 0 0 0 0 0 0
0 0 0 0 0 0 0 0 0 0 0 0 0 0 0 0 0 0 0 0 0 0 0 0 0 0 0 0 0 0 0 0 0 0 0 0 0 0
0 0 0 0 0 0 0 0 0 0 0 0 0 0 0 0 0 0 0 0 0 0 0 0 0 0 0 0 0 0 0 0 0 0 0 0 0 0
0 0 0 0 0 0 0 0 0 0 0 0 0 0 0 0 0 0 0 0 0 0 0 0 0 0 0 0 0 0 0 0 0 0 0 0 0 0
0 0 0 0 0 0 0 0 0 0 0 0 0 0 0 0 0 0 0 0 0 0 0 0 0 0 0 0 0 0 0 0 0 0 0 0 0 0
0 0 0 0 0 0 0 0 0 0 0 0 0 0 0 0 0 0 0 0 0 0 0 0 0 0 0 0 0 0 0 0 0 0 0 0 0 0
0 0 0 0 0 0 0 0 0 0 0 0 0 0 0 0 0 0 0 0 0 0 0 0 0 0 0 0 0 0 0 0 0 0 0 0 0 0
Height
5778 5780 5782 5784 5785 5786 5788 5789 5791 5792 5793 5794 5795 5795 5795 5796 5795 5795 5795 5795 5794 5793 5793 5792 5791 5790 5788 5787 5785 5784 5782 5780 5778 5776 5773 5771 5768 5765
5768 5771 5773 5775 5776 5778 5779 5781 5782 5783 5785 5786 5786 5787 5787 5787 5787 5787 5787 5787 5786 5786 5785 5784 5783 5782 5781 5779 5778 5776 5774 5772 5770 5768 5765 5762 5760 5757
5759 5761 5763 5765 5767 5769 5770 5771 5773 5774 5776 5777 5777 5778 5778 5779 5779 5779 5778 5778 5778 5777 5777 5776 5775 5773 5772 5771 5769 5767 5765 5763 5761 5759 5756 5754 5751 5748
5749 5751 5753 5755 5758 5760 5761 5762 5763 5765 5766 5767 5768 5768 5769 5770 5770 5770 5770 5769 5769 5768 5767 5767 5765 5764 5763 5761 5760 5758 5756 5754 5752 5749 5747 5744 5741 5738
5738 5741 5743 5745 5748 5749 5751 5753 5754 5755 5756 5757 5758 5759 5759 5760 5760 5760 5760 5760 5760 5759 5758 5757 5756 5755 5753 5752 5750 5748 5746 5744 5742 5739 5736 5734 5731 5728
5727 5730 5733 5735 5737 5739 5741 5742 5744 5745 5746 5747 5747 5748 5749 5749 5750 5750 5750 5750 5749 5749 5748 5747 5746 5744 5743 5741 5740 5738 5736 5733 5731 5728 5725 5723 5719 5716
5716 5719 5722 5724 5726 5728 5730 5731 5733 5734 5735 5736 5737 5737 5738 5738 5739 5739 5739 5739 5739 5738 5737 5736 5735 5734 5732 5731 5729 5727 5724 5722 5719 5716 5714 5711 5707 5704
5704 5707 5710 5713 5715 5717 5718 5720 5721 5722 5724 5725 5726 5726 5726 5727 5727 5727 5728 5728 5728 5728 5726 5725 5724 5723 5721 5719 5717 5715 5712 5710 5707 5704 5701 5698 5695 5691
5692 5695 5698 5701 5703 5705 5706 5707 5709 5710 5712 5713 5714 5714 5715 5715 5716 5716 5716 5716 5716 5715 5714 5714 5712 5711 5709 5707 5705 5702 5700 5697 5694 5692 5689 5685 5682 5678
5680 5683 5685 5688 5690 5692 5694 5695 5697 5698 5699 5700 5702 5702 5702 5702 5703 5703 5703 5703 5703 5702 5701 5701 5700 5699 5697 5694 5692 5689 5687 5684 5681 5678 5675 5672 5668 5665
5666 5669 5672 5675 5677 5679 5681 5683 5684 5685 5686 5687 5688 5688 5689 5689 5689 5690 5690 5690 5690 5689 5688 5688 5687 5685 5684 5682 5679 5676 5673 5671 5668 5665 5661 5658 5654 5651
5653 5656 5659 5661 5663 5665 5667 5669 5671 5672 5673 5674 5675 5675 5676 5676 5676 5676 5676 5676 5676 5676 5675 5673 5673 5671 5671 5669 5666 5663 5660 5657 5654 5651 5647 5644 5640 5636
5638 5642 5644 5647 5650 5652 5654 5656 5657 5659 5660 5661 5662 5662 5663 5663 5662 5662 5662 5661 5661 5661 5660 5659 5658 5656 5655 5655 5653 5649 5646 5643 5640 5637 5633 5629 5625 5621
5624 5628 5630 5633 5636 5638 5640 5642 5644 5645 5646 5647 5648 5649 5649 5649 5649 5648 5648 5647 5647 5646 5645 5644 5643 5642 5641 5639 5638 5636 5632 5629 5626 5622 5618 5614 5610 5606
5610 5613 5616 5619 5621 5624 5626 5628 5629 5631 5632 5633 5634 5635 5635 5634 5634 5634 5634 5633 5632 5632 5631 5629 5628 5627 5625 5624 5623 5620 5618 5615 5610 5607 5603 5599 5595 5591
5596 5599 5602 5605 5607 5610 5612 5614 5615 5617 5618 5619 5619 5620 5620 5620 5620 5620 5619 5619 5618 5618 5616 5615 5613 5612 5610 5608 5607 5605 5601 5599 5596 5592 5588 5583 5578 5574
5581 5584 5588 5591 5593 5595 5597 5599 5600 5602 5603 5604 5604 5605 5605 5605 5605 5605 5605 5604 5604 5603 5602 5600 5599 5597 5595 5593 5591 5589 5586 5583 5579 5576 5572 5569 5563 5558
5567 5570 5573 5576 5578 5580 5582 5584 5585 5586 5587 5588 5589 5590 5590 5591 5591 5590 5590 5589 5589 5588 5587 5586 5584 5582 5580 5578 5576 5574 5571 5567 5564 5560 5556 5553 5550 5544
5553 5556 5559 5562 5564 5566 5567 5569 5570 5572 5572 5573 5574 5575 5575 5576 5576 5576 5575 5575 5574 5573 5572 5570 5569 5567 5566 5565 5562 5558 5555 5552 5549 5546 5541 5537 5534 5530
5540 5543 5546 5548 5550 5551 5553 5555 5556 5557 5558 5559 5560 5561 5561 5561 5561 5561 5560 5560 5559 5558 5557 5555 5554 5552 5550 5549 5547 5544 5540 5537 5534 5530 5527 5522 5518 5514
5527 5530 5532 5534 5536 5538 5539 5541 5542 5543 5544 5545 5546 5547 5547 5547 5547 5547 5546 5545 5544 5543 5542 5541 5539 5537 5534 5532 5531 5530 5526 5521 5517 5514 5511 5508 5504 5500
5514 5516 5518 5520 5522 5524 5525 5527 5529 5530 5531 5532 5532 5533 5533 5533 5533 5533 5532 5532 5531 5529 5528 5527 5524 5522 5520 5518 5516 5514 5512 5508 5503 5498 5494 5491 5487 5484
5501 5503 5505 5507 5509 5510 5512 5513 5515 5516 5517 5518 5519 5519 5520 5520 5519 5519 5519 5518 5517 5516 5514 5512 5510 5508 5506 5504 5501 5499 5497 5493 5489 5485 5481 5476 5472 5468
Wind_Speed
38 38 37 36 36 36 35 34 34 33 33 32 32 32 32 32 32 32 31 30 30 30 30 30 31 31 31 32 32 32 33 33 33 34 34 35 35 36
41 40 39 38 37 36 36 35 35 35 34 34 34 33 33 33 33 33 33 32 32 32 32 33 33 33 34 34 34 35 34 35 35 36 36 37 37 38
42 42 41 41 39 38 38 37 37 36 35 35 35 34 34 35 35 35 34 35 35 34 34 35 35 35 35 36 36 36 36 37 37 38 38 39 39 40
44 44 43 42 41 40 39 39 38 38 37 37 36 35 36 36 37 37 37 37 37 37 37 37 37 37 38 38 38 38 39 39 40 40 40 41 41 42
44 44 43 43 42 41 40 40 40 39 39 39 38 38 38 38 38 39 39 39 39 39 40 40 39 39 39 39 40 40 41 41 42 42 43 43 43 43
46 46 45 45 44 43 42 42 41 41 41 41 40 41 41 41 40 40 41 41 41 41 42 42 41 41 41 42 42 43 43 43 44 44 45 45 45 46
48 48 47 46 45 45 44 44 44 44 44 43 43 43 43 43 42 42 43 43 43 43 43 43 44 44 45 44 45 45 46 46 46 46 46 47 47 48
48 48 48 47 46 46 47 47 46 46 45 45 44 44 44 44 44 44 44 44 44 45 45 45 45 46 47 47 47 47 47 47 47 47 48 48 49 49
50 49 49 49 48 48 48 48 48 48 47 46 46 46 45 46 46 46 46 46 46 46 46 46 46 46 47 48 48 48 48 48 49 50 50 50 50 50
52 51 51 50 50 49 49 49 48 48 48 48 47 47 47 48 48 48 48 48 48 48 48 48 48 48 49 49 49 50 50 50 51 51 52 52 52 52
53 52 52 52 51 51 50 49 49 48 48 49 49 48 48 49 49 50 49 49 49 49 49 50 50 50 50 51 51 51 51 52 52 52 53 53 53 53
54 53 52 52 51 51 51 50 49 49 49 49 49 49 49 50 50 51 51 51 51 51 51 52 52 52 51 51 51 51 52 53 53 54 54 54 54 54
53 53 53 52 52 52 52 50 50 49 50 50 50 50 50 50 50 50 51 52 52 52 53 53 53 53 53 52 52 52 53 53 54 55 55 55 55 55
54 54 54 53 52 52 51 51 51 50 50 50 51 51 51 51 51 50 50 51 52 52 53 53 53 54 54 53 53 53 54 54 55 55 55 56 56 56
54 53 53 53 53 53 53 53 52 51 51 51 51 51 51 51 51 51 51 51 52 52 53 53 53 53 54 54 54 54 54 55 55 55 56 57 57 57
54 54 54 53 53 54 54 54 54 53 53 53 53 52 52 52 52 52 52 52 52 53 53 53 53 53 54 55 55 55 55 55 55 56 56 56 57 57
54 54 54 54 54 54 54 54 54 54 54 54 54 53 53 53 53 53 52 53 53 53 53 53 53 54 55 55 55 56 56 56 56 56 56 55 55 56
52 52 53 53 52 53 53 53 53 53 53 53 52 52 52 52 52 52 53 53 53 53 53 53 53 54 54 55 56 56 56 55 55 55 55 55 55 55
49 49 50 50 50 50 50 50 50 50 50 50 50 50 51 51 52 52 52 53 53 53 53 54 54 54 54 54 54 55 55 55 55 55 55 55 55 55
47 47 47 48 48 48 48 48 48 49 49 49 49 50 50 50 50 50 51 51 52 52 53 53 54 54 54 54 53 53 54 54 54 54 55 55 55 54
45 45 46 46 46 46 46 46 46 46 46 47 47 48 48 48 48 49 49 50 50 50 51 51 51 52 53 53 52 52 53 53 54 54 54 54 53 52
43 43 44 44 44 45 45 45 45 45 45 45 45 45 45 46 46 47 47 48 48 49 49 49 50 50 51 51 51 52 52 52 53 53 53 53 52 51
41 42 42 43 43 44 44 43 43 44 44 44 44 44 44 45 45 46 46 47 48 49 49 49 49 50 50 50 50 51 51 51 51 51 51 51 52 51
Wind_Direction
254 255 257 258 261 263 264 266 266 266 265 267 269 271 273 274 275 276 277 278 280 280 282 284 285 287 288 289 290 292 292 293 294 295 297 298 299 301
254 256 258 259 260 262 263 264 265 265 265 266 268 270 272 273 274 275 276 277 279 280 281 283 285 286 288 289 289 290 291 292 293 295 296 298 299 300
254 256 258 260 261 263 263 263 264 264 265 267 268 270 272 273 274 274 275 276 278 280 281 282 283 285 286 287 289 290 290 292 293 294 295 297 298 299
255 256 258 259 261 262 262 263 264 264 264 265 267 269 271 272 272 273 274 276 277 278 280 282 282 283 285 286 288 289 290 291 293 294 295 295 296 297
253 255 258 259 260 262 262 263 264 265 265 266 267 268 270 271 272 273 273 274 276 277 279 280 281 283 284 286 287 289 290 292 292 293 294 295 296 296
253 255 257 259 260 262 262 263 264 265 267 268 268 269 270 271 272 273 273 274 276 277 278 279 280 283 284 286 288 289 290 291 292 293 294 295 295 296
253 254 256 259 261 262 263 263 264 266 267 268 269 269 270 271 272 273 274 275 275 277 278 279 281 283 284 286 287 289 290 291 292 293 294 294 295 295
253 254 256 258 260 261 262 263 264 266 267 268 269 270 270 270 271 273 274 275 275 276 278 279 281 283 284 286 287 289 290 291 292 293 293 294 294 295
252 254 256 258 259 261 262 263 264 265 266 267 268 269 270 270 271 272 273 274 275 276 277 279 281 283 285 286 287 289 290 290 291 292 293 293 294 294
253 254 256 258 259 260 261 262 263 265 266 267 267 268 269 270 272 272 273 273 275 276 277 279 281 283 284 286 287 288 289 290 291 292 293 293 294 294
253 254 256 257 258 260 261 262 263 264 265 266 267 268 269 271 272 273 273 274 275 276 278 279 281 282 284 285 287 288 289 289 290 292 292 293 294 294
253 254 256 257 258 258 260 262 263 263 264 265 267 269 270 271 272 272 273 273 274 276 277 279 280 281 283 285 286 287 288 289 290 291 292 292 293 293
253 254 254 255 257 258 260 262 263 263 264 266 267 269 270 271 272 273 273 274 275 276 277 278 279 281 282 284 284 286 287 288 289 290 291 291 292 293
252 254 255 256 257 258 259 261 262 264 266 267 268 269 270 271 272 273 274 274 275 276 277 278 279 280 282 282 283 284 285 287 288 289 290 291 291 292
253 254 255 256 257 258 260 261 263 265 266 267 268 269 270 271 271 272 273 274 275 277 278 279 279 280 281 282 283 284 285 286 287 288 289 290 291 292
253 254 256 257 258 259 261 262 264 265 266 267 268 269 270 270 271 272 273 274 276 277 278 279 280 281 282 283 284 284 285 286 287 288 290 291 292 293
253 254 256 258 259 260 261 262 264 264 265 266 267 268 269 270 271 272 274 275 276 277 278 279 280 282 283 284 284 285 286 287 288 290 290 291 292 294
253 255 256 258 259 260 261 263 264 265 266 266 267 267 268 270 271 272 273 275 276 277 278 279 281 282 283 284 285 286 287 288 289 290 291 292 293 294
254 255 256 258 259 260 261 262 263 263 264 265 266 267 268 270 271 272 273 275 277 278 279 280 281 282 284 285 285 286 287 288 289 290 292 293 294 294
255 256 257 258 259 260 260 261 262 263 264 264 266 267 268 270 271 272 274 275 277 278 280 281 282 283 284 285 286 286 287 289 290 291 292 293 294 294
255 256 258 258 259 259 260 261 262 263 264 266 267 268 269 271 272 274 275 276 278 279 280 281 282 283 284 285 286 287 288 290 291 291 292 293 293 293
256 258 259 259 259 259 260 261 262 263 264 266 267 269 271 272 274 275 277 278 279 281 282 283 283 284 284 285 287 288 289 290 291 292 293 293 293 293
257 258 258 259 259 260 261 261 262 263 264 266 268 270 271 273 275 276 277 279 280 281 283 283 284 284 285 286 287 289 290 291 291 292 293 294 295 295